| time (UTC) | temp C | wind direction | speed KPH | gust KPH | rain 1hr cm | rain 24hr cm | rain mn cm | humidity % | barometer mb |
| 20260505004512 | 2 | 360 | 9.7 | 17.7 | 0.46 | 0.64 | 0.64 | 92 | 1014.2 |
| 20260505003007 | 2 | 23 | 16.1 | 24.1 | 0.43 | 0.61 | 0.61 | 91 | 1014.2 |
| 20260505001510 | 2 | 17 | 8.0 | 29.0 | 0.33 | 0.51 | 0.51 | 90 | 1014.5 |
| 20260505000006 | 3 | 360 | 9.7 | 27.4 | 0.15 | 0.33 | 0.33 | 86 | 1014.4 |
| 20260504234528 | 5 | 5 | 25.7 | 40.2 | 0.00 | 0.18 | 0.18 | 79 | 1014.0 |
| 20260504233020 | 6 | 25 | 1.6 | 19.3 | 0.00 | 0.18 | 0.18 | 79 | 1013.6 |
| 20260504231508 | 6 | 95 | 11.3 | 19.3 | 0.03 | 0.18 | 0.18 | 78 | 1013.6 |
| 20260504230014 | 6 | 76 | 4.8 | 24.1 | 0.03 | 0.18 | 0.18 | 75 | 1013.5 |
| 20260504224513 | 7 | 137 | 9.7 | 20.9 | 0.03 | 0.18 | 0.18 | 77 | 1013.5 |
| 20260504223006 | 8 | 132 | 14.5 | 29.0 | 0.03 | 0.18 | 0.18 | 70 | 1013.3 |
| 20260504221519 | 8 | 340 | 1.6 | 14.5 | 0.00 | 0.15 | 0.15 | 58 | 1013.2 |
| 20260504220024 | 8 | 11 | 17.7 | 32.2 | 0.00 | 0.15 | 0.15 | 59 | 1012.5 |
| 20260504214510 | 8 | 5 | 16.1 | 38.6 | 0.00 | 0.15 | 0.15 | 58 | 1012.9 |
| 20260504213016 | 10 | 31 | 6.4 | 14.5 | 0.00 | 0.15 | 0.15 | 59 | 1012.9 |
| 20260504211512 | 9 | 5 | 1.6 | 14.5 | 0.00 | 0.15 | 0.15 | 57 | 1013.1 |
| 20260504210016 | 8 | 31 | 12.9 | 20.9 | 0.03 | 0.15 | 0.15 | 74 | 1013.4 |
| 20260504204525 | 7 | 321 | 14.5 | 29.0 | 0.08 | 0.15 | 0.15 | 70 | 1013.8 |
| 20260504203012 | 7 | 342 | 6.4 | 12.9 | 0.10 | 0.15 | 0.15 | 76 | 1013.7 |
| 20260504201503 | 6 | 340 | 8.0 | 20.9 | 0.13 | 0.15 | 0.15 | 79 | 1014.0 |
| 20260504200003 | 5 | 342 | 12.9 | 27.4 | 0.13 | 0.13 | 0.13 | 76 | 1014.1 |
| 20260504194519 | 5 | 284 | 12.9 | 25.7 | 0.08 | 0.08 | 0.08 | 76 | 1014.4 |
| 20260504193003 | 5 | 360 | 17.7 | 37.0 | 0.05 | 0.05 | 0.05 | 71 | 1014.3 |
| 20260504191508 | 7 | 303 | 22.5 | 41.8 | 0.03 | 0.03 | 0.03 | 56 | 1014.3 |
| 20260504190008 | 8 | 29 | 14.5 | 22.5 | 0.00 | 0.00 | 0.00 | 57 | 1014.2 |
| 20260504184504 | 7 | 17 | 19.3 | 29.0 | 0.00 | 0.00 | 0.00 | 63 | 1014.2 |
| 20260504183002 | 9 | 342 | 30.6 | 49.9 | 0.00 | 0.00 | 0.00 | 47 | 1014.6 |
| 20260504181518 | 12 | 329 | 14.5 | 29.0 | 0.00 | 0.00 | 0.00 | 37 | 1014.3 |
| 20260504180007 | 12 | 280 | 4.8 | 20.9 | 0.00 | 0.00 | 0.00 | 38 | 1014.4 |
| 20260504174512 | 12 | 202 | 4.8 | 33.8 | 0.00 | 0.00 | 0.00 | 38 | 1014.4 |
| 20260504173008 | 12 | 269 | 11.3 | 25.7 | 0.00 | 0.00 | 0.00 | 38 | 1014.6 |
| 20260504171534 | 11 | 201 | 12.9 | 30.6 | 0.00 | 0.00 | 0.00 | 40 | 1014.5 |
| 20260504081509 | 6 | 217 | 3.2 | 11.3 | 0.00 | 0.00 | 0.00 | 29 | 1015.5 |
| 20260504050005 | 7 | 229 | 3.2 | 8.0 | 0.00 | 0.00 | 0.00 | 34 | 1017.0 |
| 20260504044506 | 7 | 245 | 0.0 | 4.8 | 0.00 | 0.00 | 0.00 | 33 | 1017.1 |
| 20260504043005 | 7 | 260 | 0.0 | 9.7 | 0.00 | 0.00 | 0.00 | 33 | 1017.3 |
| 20260504041512 | 7 | 304 | 1.6 | 6.4 | 0.00 | 0.00 | 0.00 | 35 | 1017.3 |
| 20260504040002 | 7 | 53 | 0.0 | 4.8 | 0.00 | 0.00 | 0.00 | 37 | 1017.4 |
| 20260504034504 | 7 | 11 | 0.0 | 0.0 | 0.00 | 0.00 | 0.00 | 36 | 1017.5 |
| 20260504033010 | 8 | 285 | 3.2 | 6.4 | 0.00 | 0.00 | 0.00 | 33 | 1017.5 |
| 20260504031504 | 8 | 183 | 0.0 | 8.0 | 0.00 | 0.00 | 0.00 | 36 | 1017.5 |
| 20260504030003 | 8 | 166 | 3.2 | 8.0 | 0.00 | 0.00 | 0.00 | 36 | 1017.4 |
| 20260504024516 | 8 | 159 | 4.8 | 8.0 | 0.00 | 0.00 | 0.00 | 36 | 1017.3 |
| 20260504023003 | 8 | 164 | 6.4 | 9.7 | 0.00 | 0.00 | 0.00 | 36 | 1017.3 |
| 20260504021514 | 9 | 154 | 4.8 | 11.3 | 0.00 | 0.00 | 0.00 | 36 | 1017.2 |
| 20260504020007 | 10 | 178 | 8.0 | 12.9 | 0.00 | 0.00 | 0.00 | 35 | 1017.1 |
| 20260504014506 | 10 | 259 | 0.0 | 4.8 | 0.00 | 0.00 | 0.00 | 34 | 1017.0 |
| 20260504013005 | 10 | 217 | 6.4 | 14.5 | 0.00 | 0.00 | 0.00 | 33 | 1017.0 |
| 20260504011508 | 11 | 269 | 4.8 | 24.1 | 0.00 | 0.00 | 0.00 | 32 | 1017.1 |
| 20260504010009 | 11 | 233 | 9.7 | 29.0 | 0.00 | 0.00 | 0.00 | 33 | 1017.2 |